Theta_e
310 310 311 311 312 300 306 306 301 304 311 307 302 303 303 303 301 299 306 303 305 310 311 314 314 315 316 317 317 318 320 321 324 326 332 334 335 338 342 344 347 350 350 352 353 354 354 355 356 356 358 359 361 361 362 364 365 367 366 366 365 363 363
310 313 312 312 312 312 309 302 305 311 312 310 304 297 301 298 294 298 302 300 303 303 300 312 311 311 312 315 316 317 320 322 324 327 332 335 336 338 342 346 349 350 350 351 352 353 354 355 356 357 360 361 361 361 362 363 364 364 365 366 363 363 364
310 313 312 309 312 313 309 306 313 304 299 298 304 302 295 295 294 296 300 302 302 305 306 311 310 310 311 314 316 316 316 319 321 326 330 334 337 338 340 343 346 348 349 350 352 352 353 355 357 358 359 360 360 361 361 361 363 363 364 363 364 365 365
310 310 308 301 305 311 312 313 309 311 308 303 300 302 303 303 297 298 298 301 300 308 308 310 311 314 314 313 314 315 316 318 320 324 327 330 335 337 339 342 344 346 348 349 350 351 351 353 355 356 357 357 357 359 360 361 362 364 365 364 365 364 364
309 302 306 304 306 303 304 305 305 306 306 310 308 307 302 300 299 299 299 298 304 311 313 311 312 315 316 315 315 317 317 318 319 322 324 330 335 337 338 341 343 345 347 348 349 352 351 352 355 356 355 356 356 356 358 359 360 360 361 362 363 364 364
303 305 310 309 309 309 306 305 304 306 303 302 299 299 307 303 300 296 298 298 307 308 313 314 314 315 315 316 317 318 320 319 322 322 324 329 333 339 340 340 341 343 347 348 348 350 352 350 351 352 353 354 354 355 356 357 357 358 358 360 362 364 364
304 307 311 313 313 312 310 308 306 308 307 306 302 295 301 304 303 304 303 300 305 314 314 315 315 315 315 317 316 316 317 320 321 323 323 328 337 339 338 340 339 342 346 348 348 349 350 350 350 351 352 352 353 355 355 356 355 356 357 359 361 364 364
308 310 312 312 313 311 308 309 309 308 305 306 304 304 307 303 304 300 300 299 304 314 318 316 315 318 316 318 317 318 317 318 320 322 324 328 333 341 338 338 337 341 342 346 349 348 349 350 351 350 351 352 352 353 353 354 354 355 356 358 359 362 363
302 303 306 307 310 310 307 306 308 309 309 309 308 308 309 303 304 303 300 296 303 313 317 319 316 316 315 316 316 318 318 320 319 321 325 333 340 342 339 338 339 340 340 343 349 349 354 352 349 351 350 350 350 351 352 352 353 354 356 358 358 360 361
293 292 293 296 300 303 307 309 309 309 308 307 305 301 304 298 306 307 302 302 310 313 318 315 315 314 316 316 317 317 319 322 320 321 324 338 337 341 344 342 340 339 342 344 350 352 353 350 349 351 352 350 349 350 352 352 352 354 354 356 357 358 360
300 304 306 306 309 306 302 305 307 307 308 309 308 307 303 300 305 303 306 307 309 309 311 312 314 315 315 315 317 318 318 320 325 333 334 331 335 341 342 343 343 345 346 345 349 354 350 348 349 349 349 349 349 351 351 351 352 353 355 356 357 357 359
304 302 303 304 305 305 305 304 304 307 307 308 306 303 302 310 305 298 307 311 306 309 311 313 314 315 316 316 318 318 319 324 326 327 338 342 332 338 344 345 345 346 348 348 350 353 351 347 348 348 349 348 349 350 350 351 351 352 353 356 356 357 358
300 301 302 304 304 305 305 305 305 305 306 307 305 306 307 309 304 302 309 311 309 310 312 314 315 317 317 316 318 319 321 320 323 330 325 326 327 334 340 349 352 352 350 353 352 349 350 347 347 348 347 348 350 351 351 352 350 351 354 355 356 355 357
300 301 301 303 303 303 304 304 305 306 306 306 306 306 307 307 308 309 309 312 309 311 313 314 315 317 317 317 319 320 320 318 322 324 324 320 321 322 326 340 344 354 352 354 356 353 352 348 347 346 347 350 348 348 350 350 351 351 353 354 356 356 356
299 301 302 301 302 302 301 304 305 305 306 306 307 307 307 308 307 308 309 310 309 313 318 317 318 318 317 318 316 316 319 319 318 319 319 321 321 322 325 331 331 345 353 352 356 355 353 352 349 347 348 350 349 348 348 348 351 351 352 355 355 356 358
298 300 300 301 301 301 301 301 303 304 304 303 305 304 307 306 306 307 307 306 307 313 316 317 318 318 318 317 318 317 318 318 319 319 319 321 324 324 324 326 329 332 349 352 353 353 351 352 351 349 351 349 348 346 347 348 349 351 351 353 354 359 360
297 300 299 299 299 299 297 299 302 305 305 306 307 308 309 308 308 305 303 305 312 314 316 314 315 316 316 316 316 317 319 322 320 320 321 321 322 323 327 327 329 328 330 338 354 348 348 349 348 348 351 348 349 349 350 350 352 350 349 351 357 360 362
297 298 297 299 297 291 294 307 308 307 305 306 304 305 307 309 310 308 310 311 315 315 315 314 315 315 316 318 320 321 321 321 322 321 322 322 323 324 325 325 326 329 336 340 340 348 350 349 347 349 351 348 349 351 349 351 351 352 353 354 359 361 362
294 297 297 294 290 293 306 309 311 310 309 308 307 308 309 310 311 311 310 311 313 315 316 316 318 320 319 320 319 319 320 323 322 323 325 327 325 327 328 329 327 331 340 351 350 346 344 344 346 347 348 348 349 350 350 348 351 357 354 354 356 362 363
297 295 295 288 291 302 304 307 310 314 313 314 311 308 311 312 312 312 311 312 313 315 315 315 317 318 317 318 320 321 321 323 323 321 321 322 322 323 324 328 332 344 340 345 342 344 344 341 338 343 346 347 346 347 349 348 349 352 355 355 355 360 362
290 293 293 294 302 299 302 302 308 311 309 310 307 302 306 312 319 319 319 319 316 316 317 318 318 320 319 319 321 323 322 322 322 322 323 322 323 323 327 327 332 348 350 346 343 345 345 343 340 341 344 346 346 346 347 347 350 350 353 356 356 359 361
295 292 291 293 293 290 297 305 314 315 317 317 316 312 310 320 322 321 321 319 322 321 321 323 326 327 319 313 315 320 321 321 321 323 324 325 325 327 330 336 346 353 352 347 346 346 345 347 346 346 346 347 347 347 348 348 350 351 351 356 359 361 362
293 292 289 290 290 295 306 306 313 315 317 313 320 307 302 321 323 322 324 321 325 326 326 327 330 322 313 312 317 321 325 324 323 324 326 328 331 337 343 348 348 347 355 355 349 350 349 345 348 348 348 347 345 347 349 346 349 351 352 355 358 360 362
292 291 290 289 295 295 305 311 311 316 315 314 314 298 300 319 322 321 325 322 324 326 329 330 329 325 316 313 319 331 332 337 339 338 337 341 348 350 350 351 354 356 357 356 349 348 346 349 349 351 346 347 350 349 346 346 347 350 353 355 360 362 362
291 290 290 294 296 302 303 308 312 315 313 310 301 295 312 317 322 323 325 324 324 328 328 329 325 330 333 333 335 337 336 334 341 346 350 350 351 351 351 352 354 353 355 355 351 349 358 358 352 349 346 347 348 351 352 351 349 350 356 359 362 363 363
289 291 288 290 295 302 304 306 306 308 304 298 298 316 319 323 322 326 325 326 328 329 330 330 330 332 334 335 336 336 335 336 346 349 349 351 351 351 353 351 355 355 352 354 353 352 355 355 351 349 350 350 351 354 355 353 353 353 357 361 363 364 364
293 293 290 288 284 299 304 307 305 307 299 303 317 318 321 322 325 323 326 327 329 330 330 331 332 333 334 336 337 337 340 344 346 349 350 351 350 351 354 355 353 352 354 354 353 353 353 354 356 354 350 353 354 356 355 357 355 357 359 363 366 366 365
289 289 287 288 297 307 310 311 303 310 312 318 319 320 315 317 322 324 326 328 331 331 331 331 332 334 335 337 339 341 342 344 345 347 349 351 352 351 352 352 354 354 354 354 354 355 355 358 359 359 354 355 357 357 357 367 362 362 365 365 366 364 364
294 293 295 302 305 307 310 310 311 315 319 321 321 321 322 320 322 330 328 330 331 332 332 333 334 333 335 336 338 338 340 342 343 345 347 348 349 351 351 350 353 354 354 355 355 356 357 359 361 364 362 360 360 363 363 365 364 363 363 363 363 361 362
302 303 303 305 305 306 307 309 313 313 313 317 322 322 321 326 327 329 329 330 331 332 334 333 334 335 336 336 336 336 338 339 340 344 347 349 350 350 350 351 351 352 353 355 354 353 355 356 356 358 359 360 359 359 361 363 366 363 362 361 362 361 361
295 291 303 303 304 306 308 309 312 313 313 316 322 323 325 327 328 328 330 331 332 331 333 334 334 334 335 335 336 338 339 340 342 343 344 345 346 348 348 348 350 349 350 349 350 350 350 354 355 354 355 355 358 359 360 359 362 367 364 362 361 361 361
293 294 300 302 305 306 307 307 307 309 311 313 319 322 324 326 327 328 329 331 332 332 331 334 336 335 336 335 335 336 338 340 341 341 342 343 343 345 346 347 348 349 349 348 347 348 348 350 352 352 353 355 357 359 359 361 363 363 363 360 359 359 359
296 300 301 302 304 304 305 306 308 309 313 317 317 318 320 324 325 327 329 331 331 331 331 333 336 334 334 337 338 337 338 339 340 341 342 343 343 343 343 344 345 346 346 346 347 345 346 348 349 350 351 353 356 359 361 364 366 364 362 359 362 361 360
292 293 298 304 298 299 304 307 312 314 314 314 315 317 317 319 323 326 329 330 331 329 330 333 335 334 334 336 337 337 338 340 341 342 342 342 341 341 342 343 343 343 344 344 343 344 345 347 347 347 349 351 354 356 359 362 362 363 363 362 362 361 361
293 300 304 305 305 304 304 306 308 312 313 312 313 314 315 317 321 325 328 331 331 328 328 331 334 334 335 335 337 337 336 338 340 340 341 340 339 339 341 341 341 341 342 343 344 344 345 346 345 345 347 348 350 352 355 358 360 359 359 356 356 355 356
300 303 303 304 302 301 304 307 309 310 313 313 312 314 315 317 321 325 328 331 331 329 329 329 331 335 336 337 336 336 337 337 338 338 339 340 340 340 340 340 341 341 342 343 343 343 344 344 345 345 345 347 349 350 352 353 356 356 356 354 352 352 352
300 305 305 304 304 305 307 309 309 311 312 313 311 313 316 318 322 325 327 330 332 329 324 325 329 332 334 335 336 336 336 336 336 336 336 336 338 339 340 340 341 342 342 342 343 344 344 345 344 343 343 344 347 347 349 350 351 351 352 352 351 351 351
Wind_Speed
17 21 20 18 16 13 14 14 18 16 12 12 10 5 6 7 5 11 7 11 13 9 9 8 6 7 9 11 13 14 14 14 14 13 14 16 16 17 17 18 18 21 21 21 21 21 21 21 21 22 22 22 22 20 20 21 21 20 22 22 21 19 18
18 19 21 20 20 12 10 16 15 12 12 12 10 10 7 10 12 10 12 15 10 10 9 12 19 16 14 14 14 14 13 13 13 13 13 14 16 17 19 20 19 20 21 22 21 20 21 22 23 23 23 23 21 20 21 21 21 22 22 21 21 19 20
18 18 18 18 20 21 13 12 12 14 14 14 10 7 13 11 13 10 12 13 12 11 9 4 10 16 16 15 14 15 15 14 15 15 16 16 16 15 16 17 16 17 19 21 22 23 25 25 23 23 23 22 21 21 21 22 23 24 23 20 20 18 20
18 16 16 18 17 20 19 11 13 14 8 10 12 12 7 8 10 9 11 13 11 9 10 11 6 9 12 14 14 15 15 16 15 14 15 16 15 15 15 16 17 19 21 23 24 23 23 23 22 22 23 21 24 23 22 22 21 20 20 20 19 20 20
18 16 15 18 17 18 18 16 14 13 11 5 9 10 13 10 9 10 7 8 6 5 7 12 14 10 9 9 11 11 12 14 15 15 14 14 15 15 15 16 17 19 20 21 22 21 20 20 18 18 19 22 22 21 21 23 23 23 23 22 21 20 18
16 14 14 17 19 18 17 15 15 15 15 12 12 12 11 13 10 6 7 8 1 4 1 5 8 11 12 11 10 10 11 12 11 10 12 11 12 14 15 16 16 16 17 17 18 18 17 18 20 22 21 20 22 22 21 22 22 22 23 22 20 19 19
11 13 15 17 17 19 19 17 15 16 15 12 10 9 11 11 12 10 9 7 6 5 6 4 4 3 5 7 9 11 10 10 10 11 11 10 8 9 10 11 12 12 13 14 15 18 19 21 20 21 20 20 21 23 22 21 22 23 23 23 21 19 19
8 12 12 17 19 20 20 19 18 17 18 16 12 10 6 9 10 11 9 11 5 4 4 6 8 7 6 6 6 7 7 6 7 8 6 5 6 8 9 9 10 11 12 13 14 17 18 17 18 20 20 20 21 21 22 21 24 25 23 21 20 20 20
6 9 9 14 17 17 15 15 18 20 18 19 16 12 9 10 12 12 10 11 6 7 6 4 6 6 5 3 4 4 4 3 4 5 4 4 5 5 7 8 9 11 12 14 14 15 15 16 18 18 19 20 20 21 21 22 22 23 22 20 20 21 21
16 17 17 18 19 19 13 14 19 22 22 22 17 16 13 11 10 14 12 9 1 9 6 7 5 5 4 4 4 3 2 3 4 3 1 1 2 3 5 7 9 11 10 11 12 14 13 16 17 16 16 18 19 19 21 21 20 20 21 20 21 21 20
11 4 5 8 6 15 17 19 19 20 22 20 18 12 13 13 10 13 14 10 5 10 9 9 8 6 5 2 4 4 3 4 3 3 2 3 4 4 5 7 8 8 9 13 13 14 15 17 18 17 18 18 18 17 19 20 19 19 20 20 20 21 21
3 3 4 6 6 6 18 21 21 17 19 21 21 18 15 9 9 14 11 13 15 9 10 7 5 5 5 5 7 7 4 2 4 4 1 5 5 4 5 6 9 11 12 12 13 14 15 15 16 17 17 18 18 18 19 19 19 18 17 19 20 20 20
3 2 2 3 1 2 2 5 12 20 18 19 22 20 18 15 13 11 7 12 15 14 14 10 7 5 4 5 6 5 6 7 3 1 5 3 5 5 7 8 8 9 9 11 12 13 14 16 17 19 17 17 17 17 18 18 19 20 18 19 20 21 20
2 3 2 2 4 1 5 8 7 9 13 17 17 16 17 20 16 13 13 10 13 12 14 15 15 12 12 11 11 10 11 11 8 7 5 8 6 6 3 6 8 8 9 9 11 12 13 15 17 18 17 17 18 19 18 18 18 19 17 18 19 19 20
6 5 5 3 6 4 7 9 10 10 10 11 12 12 14 14 15 17 16 16 15 11 9 10 10 10 10 11 12 12 13 15 18 16 14 13 14 13 12 9 6 5 7 8 9 12 13 15 17 16 16 17 17 19 18 19 19 19 19 17 18 19 18
7 7 7 6 4 7 10 11 13 13 14 15 12 12 12 13 14 14 13 14 12 8 10 7 8 9 9 10 11 12 12 14 16 16 16 15 14 14 14 12 12 9 6 8 10 12 14 15 16 16 15 16 17 19 19 19 18 18 18 18 19 18 18
7 7 4 4 5 6 12 17 16 16 17 16 13 13 14 15 12 15 17 15 9 10 9 12 11 12 15 15 13 12 13 13 15 17 17 17 16 15 14 14 13 12 12 8 10 12 12 13 15 18 17 17 17 18 17 16 14 16 19 19 17 16 16
5 4 2 2 5 12 12 3 13 18 18 16 17 15 15 15 15 13 12 11 9 10 11 11 11 12 12 11 12 12 12 12 14 16 17 17 16 16 16 15 15 14 9 7 7 10 11 12 14 15 17 18 18 17 16 15 17 16 17 17 15 16 16
6 3 3 6 12 10 5 4 4 1 8 12 15 14 15 16 16 17 17 14 13 12 9 8 8 8 10 11 13 14 13 13 12 12 13 14 15 16 16 17 18 15 10 6 7 7 9 9 9 11 15 17 15 15 16 18 18 16 17 17 16 16 17
6 6 6 10 8 7 0 3 4 3 3 4 4 12 13 11 14 15 14 12 13 15 16 15 14 14 15 15 15 14 15 14 13 15 15 15 15 16 15 15 13 9 9 8 8 7 6 8 10 12 14 14 15 16 17 18 17 17 16 16 16 15 16
8 8 9 11 4 6 6 5 5 4 6 4 6 10 13 11 1 2 3 6 9 11 11 10 10 10 10 10 9 12 15 17 17 17 17 16 15 15 13 12 9 3 4 6 8 7 8 9 10 11 11 13 14 15 16 17 17 17 17 16 18 17 17
8 8 8 8 10 12 8 7 7 3 5 3 3 3 5 8 4 3 1 3 4 9 9 8 7 8 9 12 11 12 16 16 17 17 16 15 13 12 12 10 8 7 7 8 9 9 9 9 9 8 10 11 13 14 15 16 17 17 18 18 17 17 16
8 10 10 10 9 5 5 8 9 6 3 3 2 2 9 7 6 4 1 2 3 6 7 7 6 6 10 10 9 8 11 14 14 12 11 10 10 9 8 8 8 8 5 5 7 8 8 8 8 9 9 11 13 14 14 16 16 17 18 18 18 17 16
10 9 11 12 7 5 6 6 5 6 5 3 6 6 6 10 6 4 2 4 4 6 7 7 6 6 9 9 5 9 13 13 11 8 9 8 6 7 6 6 4 4 5 5 7 8 8 7 6 8 10 10 12 12 14 14 15 16 17 15 13 12 12
11 13 11 8 6 5 6 5 7 7 4 5 5 6 5 4 4 2 3 5 4 4 7 6 7 6 7 10 14 16 15 15 11 6 5 6 6 6 6 5 5 4 3 4 3 3 3 2 4 7 9 10 11 11 11 13 15 13 11 9 10 12 13
12 12 13 11 8 2 1 7 14 10 8 6 7 6 2 1 2 1 4 5 4 4 6 7 7 9 12 15 17 16 15 13 9 7 6 5 5 3 3 4 4 3 2 1 3 4 4 4 4 5 7 8 9 9 10 12 12 9 9 10 10 11 13
9 10 11 9 10 4 3 7 5 7 10 4 7 6 2 2 4 6 5 5 4 4 7 8 9 11 12 13 15 13 10 8 6 5 5 5 5 5 5 3 3 2 1 1 2 3 3 4 3 3 7 8 8 8 9 9 8 8 8 9 10 11 11
12 11 11 7 1 7 7 7 3 3 6 11 11 9 11 8 6 6 6 5 4 6 8 10 10 11 12 12 11 9 8 6 4 2 1 2 3 3 4 5 5 4 3 3 3 4 5 5 5 4 4 6 6 7 5 3 5 6 6 7 9 10 10
4 5 5 7 15 13 8 8 9 9 11 12 11 9 10 10 7 5 6 6 5 6 8 10 11 11 10 10 8 8 6 5 4 1 1 2 3 3 5 7 7 6 5 5 5 6 6 7 7 7 5 6 7 6 5 2 3 4 5 6 7 9 9
7 13 14 13 13 14 14 9 9 11 13 11 11 11 10 9 8 7 8 9 7 6 7 9 9 9 9 9 9 7 6 5 4 3 1 3 4 5 6 6 7 6 6 6 7 8 9 9 9 8 8 7 8 6 4 3 2 2 5 6 7 8 8
7 6 3 11 12 13 15 13 13 13 12 10 9 10 10 11 11 10 9 10 9 7 6 8 9 9 9 8 7 5 5 7 5 3 3 3 4 5 7 7 6 7 7 7 9 9 10 10 9 9 9 8 7 5 4 2 1 1 3 6 6 7 8
10 12 12 15 17 16 18 16 13 12 13 13 12 11 13 14 12 12 11 10 10 6 6 6 9 8 6 6 5 7 7 5 3 4 4 5 5 4 5 5 7 8 8 9 9 10 10 9 9 9 9 8 7 6 5 3 2 2 3 4 6 6 7
10 13 14 15 16 18 20 20 17 12 9 10 13 13 14 15 15 13 12 10 9 6 4 5 7 6 4 5 7 7 5 6 6 6 6 6 6 6 6 6 7 8 8 9 9 9 9 9 9 9 9 8 7 7 5 3 2 4 4 4 4 6 6
12 11 9 6 9 9 9 9 5 8 11 13 14 15 14 14 16 13 13 11 7 4 3 6 4 4 4 4 2 2 4 3 5 6 7 7 8 8 7 7 9 9 9 9 9 9 9 9 9 9 10 9 8 7 6 5 5 5 5 5 5 5 4
11 10 11 9 11 13 15 17 16 13 12 14 15 16 15 15 15 15 14 13 8 2 2 7 7 5 4 6 6 7 6 5 4 5 7 8 8 8 9 10 10 10 9 9 9 10 9 9 10 9 9 9 9 9 8 7 6 6 6 5 5 5 5
18 17 16 16 14 16 18 17 16 16 12 12 16 18 16 15 15 15 14 13 8 4 2 3 10 5 7 9 8 9 9 9 7 7 8 8 8 9 9 10 11 11 11 10 10 10 9 9 9 9 9 9 8 8 8 7 6 6 6 6 6 6 6
15 12 12 13 15 18 18 18 17 16 15 14 15 17 17 16 15 15 14 11 7 2 4 5 6 8 3 5 5 7 8 10 10 10 9 8 7 7 10 11 12 12 12 11 10 10 10 10 11 11 11 10 9 8 8 8 7 6 6 6 6 6 6
Wind_Direction
191 194 191 203 188 201 183 197 209 211 204 218 236 252 296 327 270 233 198 223 243 279 265 239 198 184 195 199 209 212 213 210 210 203 198 198 200 200 198 200 200 199 197 196 196 192 192 191 191 192 190 190 192 189 188 188 188 186 187 190 193 194 197
195 191 193 197 193 222 168 205 206 199 215 231 226 244 198 222 236 233 213 228 224 215 260 209 211 214 208 206 206 208 206 207 205 204 203 199 200 199 199 201 199 196 196 197 197 197 195 195 193 192 190 188 189 190 190 188 187 189 190 190 192 192 194
184 184 188 202 202 211 221 206 177 195 183 206 211 235 227 213 224 239 229 233 241 228 218 130 200 213 213 211 209 213 211 208 206 203 204 205 205 203 202 202 197 196 198 198 197 198 196 194 194 193 191 188 187 190 191 190 191 192 190 190 190 191 194
175 186 189 203 194 199 224 216 204 205 211 210 196 207 240 233 242 233 232 221 240 219 238 231 210 202 214 210 208 212 215 207 207 206 204 200 202 204 203 202 199 199 200 199 199 200 200 198 195 193 192 191 192 191 189 192 193 192 190 191 190 192 194
174 196 195 205 188 188 194 205 209 190 219 205 225 202 219 221 236 241 249 233 230 233 210 220 221 209 200 202 207 211 221 223 215 214 211 200 198 201 204 203 201 202 202 202 200 200 202 200 196 196 194 196 197 194 193 193 190 190 192 193 192 195 194
194 205 189 204 195 194 197 198 206 195 194 196 198 212 204 231 234 236 240 245 267 88 228 195 225 219 229 224 221 212 214 218 225 224 213 208 201 204 207 206 206 205 204 202 201 199 200 200 198 196 196 196 196 195 196 195 194 193 194 194 194 193 195
198 208 186 201 205 196 199 197 203 197 204 208 203 210 195 212 232 248 251 271 251 108 127 132 106 171 193 210 217 229 229 232 218 214 222 209 202 207 209 213 213 209 201 201 201 201 201 202 202 199 197 196 195 197 198 196 196 197 195 194 193 191 192
202 213 182 192 208 202 205 209 211 202 208 204 211 221 208 216 212 218 220 238 236 148 159 233 229 228 225 213 204 220 230 221 225 228 224 228 201 201 211 208 204 201 199 194 199 202 202 202 202 201 199 200 198 196 197 196 197 198 196 194 191 191 193
175 190 182 203 207 215 216 207 205 213 211 209 216 227 233 239 221 222 212 229 221 162 168 179 156 166 163 187 195 216 239 226 236 215 204 177 189 192 204 202 199 196 199 196 199 201 200 200 201 201 201 202 202 200 196 196 197 196 194 193 191 192 194
194 190 192 195 195 204 207 220 204 209 213 207 207 216 215 231 219 225 228 225 122 106 152 153 173 194 216 245 268 266 230 259 278 283 245 172 215 212 204 198 196 202 201 201 197 200 200 199 202 202 205 205 205 203 202 200 197 193 193 192 192 192 193
228 225 39 28 320 192 207 202 215 204 209 212 215 222 222 217 215 233 230 240 185 160 170 182 165 158 174 194 225 221 245 255 196 183 244 255 240 224 203 189 193 192 201 205 203 198 200 202 201 202 203 205 206 204 204 203 199 194 192 191 192 193 193
15 11 337 18 353 219 198 205 205 216 208 208 216 215 220 208 221 233 223 213 236 200 165 173 199 236 240 255 275 280 257 29 354 32 230 230 221 198 179 184 187 195 201 205 206 203 206 207 204 205 205 206 205 204 204 203 200 197 194 193 192 194 194
358 321 341 350 358 277 345 228 205 205 211 213 218 223 226 220 224 239 211 219 226 235 239 230 241 240 268 258 253 271 320 309 290 330 325 271 177 178 190 183 190 202 203 207 211 212 210 210 209 208 208 209 207 205 204 201 200 200 195 194 193 194 194
270 214 234 213 216 195 225 229 227 220 216 221 228 236 234 232 236 242 251 243 238 234 243 251 257 258 258 267 279 282 274 272 302 298 287 256 257 268 236 198 200 196 207 208 207 208 207 209 210 210 209 208 207 205 203 201 202 200 194 195 195 195 196
224 209 215 192 227 236 244 236 241 235 235 236 232 235 237 249 253 245 242 247 251 240 251 266 270 262 257 259 261 268 282 291 289 285 277 268 269 284 292 297 277 227 204 206 204 204 205 205 206 208 209 207 207 208 205 203 201 198 195 194 195 195 197
217 189 209 208 247 256 251 245 236 229 224 228 218 223 225 231 235 247 252 251 244 246 252 260 266 271 273 274 275 274 269 270 276 277 275 272 275 281 288 297 300 284 227 205 205 208 209 206 203 206 207 207 207 209 206 205 201 197 197 195 196 196 195
217 142 195 229 262 269 249 232 225 224 225 232 232 231 228 230 235 238 237 243 254 258 256 256 242 246 255 257 260 265 268 272 275 279 282 283 282 285 290 289 282 275 271 242 207 219 217 210 207 207 205 205 207 208 207 203 199 199 200 199 196 194 190
215 120 229 280 238 225 237 245 214 215 220 214 224 226 224 224 220 240 249 259 257 249 244 245 253 254 257 261 261 262 268 271 269 269 274 278 282 284 284 285 287 287 272 256 239 219 218 215 212 208 206 209 209 204 201 194 200 201 199 199 191 190 188
249 259 263 227 223 229 83 102 76 107 228 232 238 237 235 230 227 235 244 250 255 260 266 266 275 277 273 269 269 268 267 267 269 272 273 274 276 276 277 277 275 272 261 238 228 221 227 228 221 215 211 213 207 202 198 197 197 195 198 197 194 191 190
270 269 219 219 213 47 338 123 88 83 161 204 237 249 239 242 248 249 253 254 252 250 252 256 263 270 271 270 268 272 270 268 271 272 271 269 268 269 272 275 275 259 250 247 246 241 240 232 229 220 216 209 205 203 199 199 197 195 193 195 197 195 193
246 230 234 237 331 301 224 225 173 176 167 142 213 231 226 222 246 33 295 291 279 280 284 286 280 293 299 283 275 270 270 271 270 266 266 268 268 272 274 277 279 285 268 259 265 262 244 239 235 224 215 205 205 201 198 199 196 196 192 191 195 195 195
232 246 242 241 239 247 222 206 100 96 81 43 37 301 241 104 95 59 281 263 281 282 286 287 304 320 279 265 264 268 268 263 258 253 256 262 267 267 271 274 276 269 252 252 249 243 242 233 236 230 214 207 201 202 199 195 192 193 194 196 195 195 196
218 227 239 235 235 229 26 155 123 104 117 78 152 159 248 102 70 79 4 284 309 300 303 308 320 273 253 256 267 269 296 280 256 255 256 265 266 271 274 281 284 281 272 248 253 227 233 234 222 221 215 209 202 202 201 198 194 194 198 201 198 197 194
231 235 228 232 232 236 162 143 100 115 106 73 227 239 218 108 56 39 352 325 312 315 314 309 284 254 250 251 258 5 339 342 345 323 300 290 285 278 284 279 289 293 280 246 238 226 213 217 216 206 207 208 206 199 198 198 198 201 204 203 200 196 192
221 231 246 254 252 249 299 213 155 110 356 311 227 224 76 147 6 344 320 296 319 305 299 295 281 265 282 298 310 315 322 318 309 306 312 310 322 320 318 344 341 292 247 232 202 168 113 141 204 201 199 200 202 196 196 200 205 206 201 194 189 188 188
221 218 230 239 254 270 272 226 260 270 277 218 227 68 204 193 270 277 281 299 298 292 284 290 279 284 292 297 295 296 296 294 311 324 336 332 332 347 9 357 323 312 297 201 172 123 121 162 187 195 196 196 195 191 198 205 203 197 189 188 185 182 182
228 228 233 225 230 151 238 310 220 236 244 282 31 318 294 301 308 322 322 311 310 300 290 285 291 290 296 294 294 299 302 306 315 344 352 352 352 356 355 24 14 322 304 331 41 81 98 91 95 159 184 186 190 191 197 200 198 192 185 181 178 175 177
221 214 218 214 202 10 359 352 275 19 315 328 330 329 299 301 312 319 318 307 323 314 302 299 297 296 293 288 287 290 283 290 292 302 330 357 357 13 24 35 31 26 44 6 23 40 53 63 78 85 158 174 179 176 154 113 174 169 172 173 174 178 180
322 262 260 344 330 305 321 325 333 326 333 326 331 321 309 305 312 329 291 308 311 300 304 295 292 292 285 288 297 296 291 282 285 303 21 33 22 43 52 46 39 47 53 43 43 49 51 61 63 65 86 130 131 106 70 82 133 163 168 173 175 186 186
292 280 273 282 281 293 292 306 321 320 322 323 317 318 318 315 314 310 308 310 309 304 298 295 290 287 297 292 282 273 279 274 251 233 137 68 73 68 75 58 41 56 74 68 68 67 65 65 68 66 68 76 80 70 65 62 83 154 180 179 184 190 191
285 270 253 255 273 286 299 303 308 306 301 306 312 315 313 310 310 308 304 301 304 299 280 282 285 281 277 270 263 263 252 229 195 144 106 91 55 53 50 43 45 56 62 64 61 65 63 54 64 75 75 75 77 79 75 71 93 133 187 183 184 189 192
253 264 288 299 297 295 295 289 288 299 300 299 305 314 313 308 304 295 296 296 287 283 274 273 274 276 265 250 237 222 212 196 153 154 146 123 103 76 65 60 57 63 62 63 71 75 70 69 67 67 73 73 68 64 70 62 104 140 178 190 189 186 192
269 273 268 268 279 278 272 272 268 272 307 320 316 316 314 310 298 290 286 277 284 283 284 278 263 244 240 237 224 201 166 168 169 155 146 127 114 107 96 79 68 67 67 69 67 69 67 63 63 66 67 71 75 74 71 55 64 139 133 152 163 167 175
257 255 260 259 258 259 256 266 330 332 321 320 314 311 307 309 305 294 283 267 252 260 287 285 249 186 183 206 303 155 153 148 143 140 133 125 118 112 106 103 96 90 84 83 80 75 70 62 59 59 58 56 54 56 58 71 70 68 83 110 126 132 143
258 254 254 259 269 277 285 289 291 301 314 310 306 300 302 302 300 294 283 268 228 204 339 316 281 186 176 148 170 169 148 134 132 129 130 126 121 113 110 107 100 95 92 90 89 83 76 70 67 63 59 55 53 50 44 45 63 93 111 108 106 107 96
269 273 278 283 281 274 279 281 286 287 292 295 292 290 292 293 292 290 278 273 254 182 62 350 310 268 177 161 158 143 135 133 118 96 87 95 99 107 108 106 105 100 94 88 82 80 78 75 72 69 67 61 53 54 51 48 59 76 89 102 103 99 95
264 272 282 283 277 273 272 280 283 282 281 278 278 281 285 287 288 285 278 271 267 139 76 19 341 313 328 99 104 110 108 106 106 101 91 74 67 84 101 101 100 98 95 93 91 88 83 79 73 69 64 59 54 53 53 54 59 68 74 83 89 90 92